{"data":{"norad_id":65570,"epoch":"2026-09-19T19:31:16.557312Z","epoch_age_seconds":73679,"freshness":"FRESH","line1":"1 65570U 25203F   26262.81338608  .00000156  00000+0  13066-3 0  9990","line2":"2 65570  81.3004 283.0744 0007921 298.8479  61.1882 13.83764741 51797","mean_motion":13.83764741,"eccentricity":0.0007921,"inclination_deg":81.3004,"raan_deg":283.0744,"arg_perigee_deg":298.8479,"mean_anomaly_deg":61.1882,"bstar":0.00013066,"rev_number":5179,"period_min":104.06393206401,"perigee_km":944.75889517369,"apogee_km":956.36902323326,"semimajor_km":7328.7009592035,"source":"CELESTRAK","updated_at":"2026-09-20T09:00:47.715168Z"}}